[[[{"header":{"parameterUnit":"kt","parameterCategory":2,"dx":1,"dy":1,"la1":30.253999710083008,"la2":30.299108505249023,"lo1":-89.0895004272461,"lo2":-89.04439544677734,"nx":28,"ny":28,"refTime":"2022-10-18T21:00:00:Z","depth":0,"parameterNumber":1,"parameterNumberName":"U-component_of_WINDS"},"data":[1.2946,1.2916,1.2895,1.285,1.2824,1.279,1.2771,1.2744,1.2718,1.2675,1.2647,1.2622,1.2587,1.2548,1.2516,1.2505,1.2493,1.2499,1.2485,1.248,1.2478,1.2475,1.2481,1.2497,1.2497,1.2493,1.2493,1.2493,1.2947,1.2921,1.2891,1.2848,1.2822,1.2804,1.2768,1.2748,1.2718,1.2685,1.2655,1.2615,1.2581,1.2542,1.2506,1.2491,1.248,1.2483,1.2483,1.2477,1.2471,1.2477,1.2493,1.2493,1.2493,1.2493,1.2493,1.2493,1.2944,1.2926,1.2887,1.2854,1.2826,1.2797,1.2777,1.2746,1.2716,1.2675,1.2654,1.262,1.2582,1.2526,1.2501,1.2474,1.2466,1.2462,1.2461,1.246,1.2462,1.247,1.2467,1.2466,1.2466,1.2466,1.2466,0,1.2934,1.2917,1.2886,1.2849,1.2824,1.2793,1.2761,1.2747,1.2703,1.268,1.2645,1.2621,1.2573,1.2537,1.2497,1.2472,1.2449,1.2445,1.2441,1.245,1.2464,1.2456,1.2447,1.2444,1.2444,1.2444,1.2444,1.2443,1.2928,1.291,1.2857,1.2839,1.2815,1.2785,1.2763,1.2725,1.2703,1.2657,1.2643,1.2607,1.2575,1.2522,1.2485,1.2449,1.2437,1.2439,1.2431,1.2442,1.2436,1.2437,1.2435,1.244,1.2441,1.2441,1.2441,0,1.2927,1.289,1.2854,1.2803,1.279,1.2773,1.2729,1.271,1.2681,1.265,1.2641,1.2595,1.2561,1.2523,1.2475,1.2457,1.2428,1.2418,1.2442,1.2437,1.2435,1.2435,1.2432,1.243,1.2414,1.2414,1.2415,0,1.2907,1.2884,1.283,1.2811,1.2785,1.2746,1.2721,1.2693,1.2658,1.2633,1.2602,1.2579,1.2533,1.2505,1.2477,1.2448,1.2439,1.2422,1.2414,1.2424,1.2426,1.241,1.2409,1.2399,1.2399,1.2399,1.2399,0,1.2908,1.2852,1.2821,1.2802,1.2744,1.273,1.2705,1.2665,1.2643,1.2608,1.2593,1.2556,1.2535,1.2507,1.247,1.2467,1.2433,1.242,1.2416,1.2417,1.2408,1.2409,1.2418,1.2399,1.2399,1.2399,1.2399,0,1.2885,1.285,1.2811,1.2762,1.2748,1.2728,1.2687,1.2661,1.2621,1.2601,1.2573,1.2546,1.2517,1.2507,1.2466,1.2471,1.2453,1.2434,1.2433,1.2426,1.2416,1.2425,1.2439,1.2438,1.2424,1.2424,1.2424,0,1.2897,1.2846,1.2811,1.2774,1.2745,1.271,1.2687,1.2652,1.2624,1.2595,1.2564,1.2531,1.2516,1.2499,1.2485,1.245,1.2444,1.245,1.2409,1.2408,1.242,1.2432,1.2443,1.244,1.2426,1.2426,1.2426,0,1.29,1.2828,1.2824,1.28,1.2747,1.2722,1.2695,1.2653,1.2636,1.2599,1.2575,1.2528,1.2514,1.2488,1.2461,1.2447,1.2447,1.2434,1.2432,1.2437,1.2423,1.2434,1.2434,1.2432,1.2432,1.2432,1.2427,0,1.2874,1.2842,1.2829,1.2777,1.2751,1.2725,1.2682,1.2661,1.2638,1.2608,1.2572,1.2531,1.2487,1.2476,1.2453,1.2433,1.243,1.2415,1.2401,1.241,1.2407,1.2406,1.2409,1.2408,1.2408,1.2407,0,0,1.2893,1.2847,1.2808,1.278,1.2755,1.2718,1.2694,1.2666,1.2609,1.2594,1.2586,1.2513,1.2479,1.2439,1.2438,1.2421,1.2413,1.2411,1.2406,1.2406,1.2406,1.2404,1.2404,1.2406,1.2406,1.2406,1.2406,0,1.2874,1.2841,1.2818,1.2787,1.274,1.2708,1.2703,1.2649,1.2628,1.2592,1.256,1.2533,1.2474,1.2443,1.2419,1.2416,1.2392,1.2406,1.2418,1.2402,1.2403,1.2404,1.2402,1.2402,1.2404,1.2404,1.2404,0,1.2869,1.283,1.2813,1.2756,1.2724,1.2694,1.267,1.2639,1.2616,1.2574,1.2538,1.2509,1.2463,1.243,1.2414,1.2406,1.2376,1.2377,1.2379,1.2376,1.2358,1.2359,1.236,1.2347,1.2347,1.2347,0,0,1.2858,1.2829,1.2772,1.2748,1.273,1.2683,1.2662,1.2636,1.2595,1.2579,1.2541,1.2502,1.2468,1.2446,1.2411,1.2381,1.2368,1.2372,1.2374,1.2377,1.2375,1.2358,1.2359,1.2347,1.2347,1.2347,0,0,1.2852,1.2786,1.277,1.2736,1.2699,1.2641,1.2628,1.2606,1.2569,1.2567,1.2521,1.2508,1.2477,1.2449,1.2453,1.2405,1.2392,1.239,1.2423,1.2426,1.2429,1.2435,1.2421,0,0,0,0,0,1.281,1.2795,1.278,1.2768,1.2694,1.265,1.264,1.2601,1.2593,1.2584,1.2548,1.2524,1.2442,1.2445,1.2433,1.2428,1.2347,1.2347,1.2347,1.2383,1.2387,1.2389,0,0,0,0,0,0,1.2804,1.2789,1.2781,1.2723,1.2706,1.265,1.2628,1.2617,1.2593,1.2589,1.2532,1.2522,1.2488,1.2448,1.2438,1.2434,1.2424,1.2347,1.2347,1.2347,1.2384,1.2387,1.2389,0,0,0,0,0,1.28,1.2788,1.2679,1.2723,1.2708,1.2653,1.2628,1.2619,1.26,1.2543,1.2533,1.2572,1.2489,1.2478,1.2442,1.2439,1.243,1.2427,1.2347,1.2347,1.2347,1.2386,0,0,0,0,0,0,1.2797,1.2779,1.2675,1.2669,1.2725,1.2655,1.2643,1.2621,1.2554,1.2544,1.2582,1.2579,1.2489,1.2481,1.2472,1.2443,1.2436,1.2432,1.243,1.2347,1.2347,1.2347,0,0,0,0,0,0,1.2785,1.2774,1.2672,1.2676,1.2671,1.2658,1.2647,1.261,1.2554,1.2596,1.2592,1.2581,1.2502,1.2483,1.2476,1.242,1.244,1.2436,1.2434,1.2432,1.2347,1.2347,0,0,0,0,0,0,1.278,1.277,1.2678,1.2673,1.2668,1.2598,1.2624,1.255,1.2559,1.26,1.2559,1.2558,1.2504,1.2497,1.2479,1.2426,1.2422,1.244,1.2437,1.2436,1.2435,0,0,0,0,0,0,0,1.2775,1.2848,1.271,1.2671,1.2666,1.2613,1.2612,1.261,1.2559,1.2559,1.2559,1.2559,1.246,1.2456,1.2452,1.2431,0,0,1.244,1.2438,0,0,0,0,0,0,0,0,1.2851,1.2849,1.271,1.2709,1.2708,1.2613,1.2612,1.261,1.2559,1.2559,1.2559,1.2559,1.2459,1.2456,1.2452,0,0,0,0,0,0,0,0,0,0,0,0,0,0,0,1.271,1.2709,0,1.2613,1.2612,1.2611,1.2559,1.2559,1.2559,1.2559,1.2458,1.2455,1.2453,0,0,0,0,0,0,0,0,0,0,0,0,0,0,0,0,0,0,0,0,0,0,0,0,0,0,0,0,0,0,0,0,0,0,0,0,0,0,0,0,0,0,0,0,0,0,0,0,0,0,0,0,0,0,0,0,0,0,0,0,0,0,0,0,0,0,0,0,0]}],[{"header":{"parameterUnit":"kt","parameterCategory":2,"dx":1,"dy":1,"la1":30.253999710083008,"la2":30.299108505249023,"lo1":-89.0895004272461,"lo2":-89.04439544677734,"nx":28,"ny":28,"refTime":"2022-10-18T21:00:00:Z","depth":0,"parameterNumber":2,"parameterNumberName":"V-component_of_WINDS"},"data":[-7.4612,-7.4771,-7.4806,-7.5003,-7.5067,-7.5207,-7.5267,-7.5349,-7.5423,-7.5592,-7.5695,-7.5745,-7.583,-7.5959,-7.6071,-7.609,-7.6134,-7.6165,-7.6181,-7.6014,-7.5993,-7.5973,-7.5937,-7.6175,-7.6175,-7.6347,-7.6349,-7.635,-7.4484,-7.455,-7.4666,-7.48,-7.4898,-7.489,-7.4995,-7.5077,-7.5202,-7.5294,-7.5398,-7.5549,-7.5672,-7.5748,-7.5872,-7.5944,-7.5945,-7.5975,-7.5968,-7.598,-7.5805,-7.5766,-7.5972,-7.5972,-7.5972,-7.5971,-7.5971,-7.5971,-7.426,-7.4355,-7.4457,-7.4582,-7.466,-7.4749,-7.4845,-7.4905,-7.5017,-7.5152,-7.5171,-7.5312,-7.5409,-7.5575,-7.5638,-7.5748,-7.572,-7.5762,-7.5772,-7.5781,-7.5786,-7.5526,-7.5771,-7.577,-7.577,-7.5769,-7.5769,0,-7.4106,-7.4129,-7.4242,-7.4366,-7.4459,-7.4558,-7.4654,-7.4714,-7.4772,-7.4862,-7.4995,-7.5076,-7.5237,-7.5364,-7.5487,-7.5545,-7.5541,-7.5546,-7.5574,-7.5564,-7.554,-7.5551,-7.5259,-7.5538,-7.5536,-7.5534,-7.5533,-7.5533,-7.3879,-7.3987,-7.4111,-7.4185,-7.4247,-7.4367,-7.4445,-7.4489,-7.457,-7.4693,-7.4774,-7.4903,-7.5008,-7.5213,-7.5279,-7.5399,-7.5397,-7.5499,-7.5415,-7.5402,-7.5394,-7.5386,-7.5395,-7.5513,-7.5516,-7.5518,-7.5519,0,-7.3747,-7.3804,-7.3982,-7.4094,-7.4125,-7.4235,-7.433,-7.4426,-7.4474,-7.4612,-7.4646,-7.472,-7.4849,-7.4899,-7.5056,-7.5078,-7.5254,-7.5252,-7.522,-7.5221,-7.5315,-7.5304,-7.5619,-7.5661,-7.5419,-7.5421,-7.5423,0,-7.3573,-7.3713,-7.3789,-7.389,-7.4046,-7.4086,-7.4239,-7.4295,-7.4381,-7.449,-7.4497,-7.4598,-7.4647,-7.4757,-7.4789,-7.4943,-7.4974,-7.4998,-7.5004,-7.4995,-7.4992,-7.5034,-7.5021,-7.5019,-7.5017,-7.5016,-7.5014,0,-7.3358,-7.3564,-7.3728,-7.3784,-7.3917,-7.3992,-7.4051,-7.4148,-7.4224,-7.4331,-7.438,-7.4502,-7.4567,-7.466,-7.47,-7.464,-7.4891,-7.4817,-7.4915,-7.4914,-7.4964,-7.496,-7.523,-7.5012,-7.5012,-7.5011,-7.5011,0,-7.3225,-7.3335,-7.3565,-7.3675,-7.3727,-7.3836,-7.3958,-7.4063,-7.4164,-7.4192,-7.4277,-7.4285,-7.4427,-7.4349,-7.4543,-7.4453,-7.4517,-7.4554,-7.4562,-7.4574,-7.4485,-7.4625,-7.4881,-7.4907,-7.459,-7.4586,-7.4583,0,-7.296,-7.3209,-7.3245,-7.3463,-7.3584,-7.3582,-7.3703,-7.3793,-7.3841,-7.3949,-7.4,-7.4123,-7.4077,-7.4122,-7.4212,-7.4269,-7.4386,-7.4255,-7.4404,-7.4409,-7.4374,-7.4611,-7.4634,-7.482,-7.4539,-7.4544,-7.4547,0,-7.2761,-7.2924,-7.296,-7.3025,-7.3152,-7.3254,-7.3394,-7.3525,-7.3595,-7.3697,-7.3812,-7.3988,-7.3959,-7.4034,-7.4053,-7.4144,-7.4308,-7.41,-7.4103,-7.4132,-7.4523,-7.4543,-7.4575,-7.43,-7.4306,-7.431,-7.4512,0,-7.254,-7.2673,-7.2776,-7.2919,-7.3007,-7.3147,-7.3202,-7.3286,-7.3297,-7.3343,-7.3516,-7.3603,-7.3735,-7.3785,-7.3796,-7.399,-7.3964,-7.3932,-7.3856,-7.4013,-7.4081,-7.4109,-7.3752,-7.375,-7.3748,-7.3747,0,0,-7.227,-7.2462,-7.2498,-7.2636,-7.2711,-7.2706,-7.2851,-7.2924,-7.307,-7.3121,-7.3081,-7.334,-7.3413,-7.3616,-7.3669,-7.3724,-7.3762,-7.3705,-7.3939,-7.396,-7.398,-7.4052,-7.408,-7.3744,-7.3743,-7.3743,-7.3742,0,-7.22,-7.2279,-7.2423,-7.2501,-7.2617,-7.266,-7.2694,-7.2807,-7.2843,-7.3015,-7.3006,-7.3116,-7.3323,-7.3399,-7.3465,-7.3684,-7.3668,-7.3721,-7.3819,-7.3922,-7.3945,-7.3966,-7.404,-7.4067,-7.3738,-7.3739,-7.3739,0,-7.2011,-7.2096,-7.2172,-7.2346,-7.2422,-7.2547,-7.2483,-7.2619,-7.2712,-7.2697,-7.2866,-7.2922,-7.3029,-7.3216,-7.3302,-7.3266,-7.358,-7.3492,-7.3503,-7.3513,-7.3615,-7.3643,-7.3668,-7.3338,-7.3336,-7.3335,0,0,-7.1943,-7.2067,-7.2171,-7.2335,-7.2384,-7.245,-7.2522,-7.254,-7.2638,-7.2677,-7.2748,-7.2842,-7.2962,-7.304,-7.3156,-7.3355,-7.3378,-7.344,-7.3459,-7.3475,-7.3492,-7.3598,-7.3626,-7.3329,-7.3328,-7.3328,0,0,-7.1909,-7.2036,-7.203,-7.2228,-7.2323,-7.2434,-7.2531,-7.2525,-7.2635,-7.2624,-7.2659,-7.2686,-7.2861,-7.2916,-7.2828,-7.3129,-7.3055,-7.3077,-7.3087,-7.3112,-7.313,-7.3112,-7.2771,0,0,0,0,0,-7.1865,-7.202,-7.2013,-7.2055,-7.2274,-7.2438,-7.2466,-7.2499,-7.2445,-7.2521,-7.2579,-7.2559,-7.2875,-7.2798,-7.2838,-7.2934,-7.325,-7.3264,-7.3277,-7.3337,-7.3362,-7.3383,0,0,0,0,0,0,-7.1882,-7.1933,-7.2009,-7.2126,-7.2176,-7.2433,-7.2348,-7.2361,-7.2437,-7.2431,-7.2549,-7.2563,-7.2593,-7.278,-7.2815,-7.2906,-7.276,-7.3255,-7.3267,-7.3278,-7.3346,-7.3366,-7.3384,0,0,0,0,0,-7.1895,-7.1936,-7.2279,-7.2124,-7.2168,-7.2249,-7.2342,-7.2353,-7.2412,-7.2502,-7.2515,-7.243,-7.2595,-7.2626,-7.2801,-7.2889,-7.2736,-7.2749,-7.3263,-7.3272,-7.3281,-7.3356,0,0,0,0,0,0,-7.1905,-7.1946,-7.2289,-7.2303,-7.2068,-7.2235,-7.2262,-7.2345,-7.2478,-7.2494,-7.2384,-7.2378,-7.2598,-7.2622,-7.2646,-7.2882,-7.2716,-7.2729,-7.2737,-7.327,-7.3277,-7.3284,0,0,0,0,0,0,-7.1924,-7.1958,-7.2296,-7.2224,-7.223,-7.2222,-7.2246,-7.24,-7.248,-7.2353,-7.2352,-7.238,-7.256,-7.262,-7.2638,-7.2876,-7.2701,-7.2714,-7.2722,-7.2728,-7.3276,-7.3282,0,0,0,0,0,0,-7.1939,-7.1968,-7.222,-7.2225,-7.223,-7.2392,-7.2358,-7.258,-7.242,-7.2347,-7.2406,-7.24,-7.2559,-7.2578,-7.2633,-7.2863,-7.2873,-7.2701,-7.271,-7.2716,-7.272,0,0,0,0,0,0,0,-7.1951,-7.1749,-7.2205,-7.2226,-7.223,-7.2435,-7.2439,-7.2442,-7.2418,-7.2413,-7.2408,-7.2403,-7.2629,-7.2643,-7.2657,-7.2853,0,0,-7.27,-7.2706,0,0,0,0,0,0,0,0,-7.1737,-7.1746,-7.2205,-7.2208,-7.2211,-7.2435,-7.2439,-7.2442,-7.2418,-7.2413,-7.2409,-7.2405,-7.2633,-7.2644,-7.2655,0,0,0,0,0,0,0,0,0,0,0,0,0,0,0,-7.2205,-7.2208,0,-7.2436,-7.2438,-7.2441,-7.2417,-7.2413,-7.241,-7.2406,-7.2636,-7.2645,-7.2654,0,0,0,0,0,0,0,0,0,0,0,0,0,0,0,0,0,0,0,0,0,0,0,0,0,0,0,0,0,0,0,0,0,0,0,0,0,0,0,0,0,0,0,0,0,0,0,0,0,0,0,0,0,0,0,0,0,0,0,0,0,0,0,0,0,0,0,0,0]}]]]